Weather History for Hays, KS

Change the Weather History Date:

Tuesday, May 13, 2014

  Actual Average Record
Temperature  
Mean Temperature 50 °F -  
Max Temperature 62 °F 73 °F 91 °F (1998)
Min Temperature 37 °F 48 °F 33 °F (1997)
Degree Days  
Heating Degree Days 16    
Moisture  
Dew Point 28 °F    
Average Humidity 46    
Maximum Humidity 75    
Minimum Humidity 25    
Precipitation  
Precipitation 0.00 in - - ()
Sea Level Pressure  
Sea Level Pressure 30.29 in    
Wind  
Wind Speed 12 mph (NNW)    
Max Wind Speed 24 mph    
Max Gust Speed 34 mph    
Visibility 10 miles    
Events      
Averages and records for this station are not official NWS values.
T = Trace of Precipitation, MM = Missing Value Source: NWS Daily Summary

Daily Weather History Graph

Daily Weather History Graph

Search for Another Location

Airport:

Trip Planner

Search our weather history database for the weather conditions in past years. The results will help you decide how hot, cold, wet, or windy it might be!

Date:

Astronomy

May. 13, 2014 Rise Set
Actual Time 6:26 AM CDT 8:40 PM CDT
Civil Twilight 5:56 AM CDT 9:10 PM CDT
Nautical Twilight 5:20 AM CDT 9:47 PM CDT
Astronomical Twilight 4:40 AM CDT 10:27 PM CDT
Moon 7:44 PM CDT (5/13) 5:43 AM CDT (5/13)
Length of Visible Light 15h 14m
Length of Day
14h 14m
Waxing Gibbous, 99% of the Moon is Illuminated
May 13
Waxing Gibbous
May 14
Full
May 21
Last Quarter
May 28
New
Jun 5
First Quarter

Hourly Weather History & Observations

Time (CDT) Temp. Windchill Dew Point Humidity Pressure Visibility Wind Dir Wind Speed Gust Speed Precip Events Conditions
12:15 AM 42.8 °F 37.0 °F 33.8 °F 70% 30.21 in 10.0 mi WNW 10.4 mph - N/A   Clear
12:35 AM 41.0 °F 35.2 °F 32.0 °F 70% 30.22 in 10.0 mi WNW 9.2 mph - N/A   Clear
1:15 AM 39.2 °F 32.5 °F 32.0 °F 75% 30.24 in 10.0 mi WNW 10.4 mph - N/A   Clear
1:35 AM 41.0 °F 34.3 °F 32.0 °F 70% 30.24 in 10.0 mi WNW 11.5 mph - N/A   Clear
1:55 AM 42.8 °F 36.2 °F 32.0 °F 66% 30.23 in 10.0 mi NNW 12.7 mph - N/A   Clear
2:35 AM 42.8 °F 36.2 °F 30.2 °F 61% 30.25 in 10.0 mi NNW 12.7 mph - N/A   Clear
2:55 AM 41.0 °F 34.3 °F 30.2 °F 65% 30.25 in 10.0 mi NW 11.5 mph - N/A   Partly Cloudy
3:15 AM 41.0 °F 34.3 °F 28.4 °F 61% 30.25 in 10.0 mi NW 11.5 mph - N/A   Clear
3:35 AM 41.0 °F 34.3 °F 28.4 °F 61% 30.25 in 10.0 mi NW 11.5 mph - N/A   Clear
3:55 AM 39.2 °F 33.0 °F 28.4 °F 65% 30.25 in 10.0 mi NW 9.2 mph - N/A   Partly Cloudy
4:15 AM 37.4 °F 30.8 °F 28.4 °F 70% 30.25 in 10.0 mi NW 9.2 mph - N/A   Partly Cloudy
4:35 AM 37.4 °F 29.8 °F 28.4 °F 70% 30.24 in 10.0 mi NW 11.5 mph - N/A   Clear
4:55 AM 39.2 °F 31.6 °F 28.4 °F 65% 30.24 in 10.0 mi NW 12.7 mph - N/A   Clear
5:15 AM 39.2 °F 32.5 °F 28.4 °F 65% 30.24 in 10.0 mi NW 10.4 mph - N/A   Clear
5:35 AM 39.2 °F 31.6 °F 28.4 °F 65% 30.24 in 10.0 mi NW 12.7 mph - N/A   Clear
5:55 AM 39.2 °F 33.0 °F 28.4 °F 65% 30.25 in 10.0 mi NW 9.2 mph - N/A   Clear
6:15 AM 37.4 °F 30.3 °F 28.4 °F 70% 30.24 in 10.0 mi NW 10.4 mph - N/A   Clear
6:35 AM 37.4 °F 30.3 °F 28.4 °F 70% 30.25 in 10.0 mi WNW 10.4 mph - N/A   Clear
6:55 AM 37.4 °F 30.8 °F 28.4 °F 70% 30.26 in 10.0 mi WNW 9.2 mph - N/A   Clear
7:15 AM 37.4 °F 31.4 °F 28.4 °F 70% 30.27 in 10.0 mi WNW 8.1 mph - N/A   Clear
8:15 AM 42.8 °F 36.2 °F 30.2 °F 61% 30.31 in 10.0 mi NW 12.7 mph - N/A   Clear
8:35 AM 44.6 °F 38.4 °F 30.2 °F 57% 30.32 in 10.0 mi NNW 12.7 mph - N/A   Clear
8:55 AM 46.4 °F 40.7 °F 32.0 °F 57% 30.33 in 10.0 mi NNW 12.7 mph - N/A   Clear
9:15 AM 48.2 °F - 32.0 °F 54% 30.33 in 10.0 mi NNW 15.0 mph - N/A   Clear
9:55 AM 51.8 °F - 30.2 °F 44% 30.33 in 10.0 mi NNW 18.4 mph 21.9 mph N/A   Clear
11:35 AM 57.2 °F - 26.6 °F 31% 30.33 in 10.0 mi North 23.0 mph 34.5 mph N/A   Clear
11:55 AM 57.2 °F - 28.4 °F 33% 30.33 in 10.0 mi North 24.2 mph 32.2 mph N/A   Partly Cloudy
12:35 PM 59.0 °F - 28.4 °F 31% 30.34 in 10.0 mi North 21.9 mph 29.9 mph N/A   Scattered Clouds
12:55 PM 57.2 °F - 28.4 °F 33% 30.34 in 10.0 mi NNW 13.8 mph 28.8 mph N/A   Scattered Clouds
1:15 PM 59.0 °F - 26.6 °F 29% 30.34 in 10.0 mi North 18.4 mph 32.2 mph N/A   Mostly Cloudy
1:35 PM 59.0 °F - 26.6 °F 29% 30.34 in 10.0 mi North 19.6 mph 26.5 mph N/A   Scattered Clouds
1:55 PM 59.0 °F - 26.6 °F 29% 30.33 in 10.0 mi North 20.7 mph 26.5 mph N/A   Mostly Cloudy
2:15 PM 60.8 °F - 28.4 °F 29% 30.33 in 10.0 mi NNW 20.7 mph 24.2 mph N/A   Scattered Clouds
2:35 PM 60.8 °F - 28.4 °F 29% 30.32 in 10.0 mi NNW 18.4 mph 26.5 mph N/A   Partly Cloudy
2:55 PM 59.0 °F - 26.6 °F 29% 30.32 in 10.0 mi North 21.9 mph 26.5 mph N/A   Scattered Clouds
3:15 PM 62.6 °F - 28.4 °F 27% 30.31 in 10.0 mi North 17.3 mph 27.6 mph N/A   Scattered Clouds
3:35 PM 60.8 °F - 26.6 °F 27% 30.30 in 10.0 mi NNW 13.8 mph 24.2 mph N/A   Scattered Clouds
3:55 PM 62.6 °F - 26.6 °F 26% 30.30 in 10.0 mi NW 17.3 mph 27.6 mph N/A   Partly Cloudy
4:15 PM 62.6 °F - 26.6 °F 26% 30.29 in 10.0 mi NNW 13.8 mph 23.0 mph N/A   Scattered Clouds
4:35 PM 60.8 °F - 26.6 °F 27% 30.29 in 10.0 mi North 12.7 mph - N/A   Partly Cloudy
4:55 PM 62.6 °F - 26.6 °F 26% 30.28 in 10.0 mi North 12.7 mph - N/A   Partly Cloudy
5:15 PM 62.6 °F - 26.6 °F 26% 30.28 in 10.0 mi North 19.6 mph 24.2 mph N/A   Scattered Clouds
5:35 PM 62.6 °F - 26.6 °F 26% 30.28 in 10.0 mi North 15.0 mph 20.7 mph N/A   Scattered Clouds
5:55 PM 62.6 °F - 26.6 °F 26% 30.28 in 10.0 mi NNW 16.1 mph 21.9 mph N/A   Scattered Clouds
6:15 PM 60.8 °F - 24.8 °F 25% 30.27 in 10.0 mi NNW 15.0 mph - N/A   Scattered Clouds
6:35 PM 60.8 °F - 24.8 °F 25% 30.27 in 10.0 mi North 11.5 mph - N/A   Scattered Clouds
6:55 PM 62.6 °F - 26.6 °F 26% 30.27 in 10.0 mi North 13.8 mph 17.3 mph N/A   Scattered Clouds
7:15 PM 62.6 °F - 26.6 °F 26% 30.27 in 10.0 mi NNW 16.1 mph 21.9 mph N/A   Scattered Clouds
7:35 PM 60.8 °F - 26.6 °F 27% 30.27 in 10.0 mi NNW 13.8 mph - N/A   Clear
7:55 PM 59.0 °F - 24.8 °F 27% 30.28 in 10.0 mi NNW 15.0 mph - N/A   Clear
8:15 PM 57.2 °F - 26.6 °F 31% 30.28 in 10.0 mi NNW 8.1 mph - N/A   Clear
8:35 PM 57.2 °F - 26.6 °F 31% 30.29 in 10.0 mi NNW 6.9 mph - N/A   Clear
8:55 PM 55.4 °F - 28.4 °F 36% 30.30 in 10.0 mi North 6.9 mph - N/A   Clear
9:15 PM 53.6 °F - 28.4 °F 38% 30.30 in 10.0 mi NNW 6.9 mph - N/A   Clear
9:55 PM 51.8 °F - 30.2 °F 44% 30.31 in 10.0 mi North 6.9 mph - N/A   Clear
10:15 PM 48.2 °F - 30.2 °F 50% 30.31 in 10.0 mi NNW 3.5 mph - N/A   Clear
10:35 PM 50.0 °F - 30.2 °F 47% 30.32 in 10.0 mi NW 4.6 mph - N/A   Clear
10:55 PM 48.2 °F - 30.2 °F 50% 30.32 in 10.0 mi WNW 5.8 mph - N/A   Clear
11:15 PM 46.4 °F 44.3 °F 28.4 °F 50% 30.32 in 10.0 mi WNW 4.6 mph - N/A   Clear
11:35 PM 46.4 °F - 30.2 °F 53% 30.32 in 10.0 mi Calm Calm - N/A   Clear
11:55 PM 46.4 °F 45.2 °F 30.2 °F 53% 30.33 in 10.0 mi North 3.5 mph - N/A   Clear